[[{"header":{"parameterUnit":"m.s-1","parameterCategory":1,"la1":30.2991,"la2":30.254,"lo1":-89.0895,"lo2":-89.0444,"dy":0.0017,"dx":0.0017,"nx":28,"ny":28,"refTime":"2024-03-03T03:00:00:Z","depth":0,"parameterNumber":2,"parameterNumberName":"U-component_of_WINDS"},"data":[0,0,0,0,0,0,0,0,0,0,0,0,0,0,0,0,0,0,0,0,0,0,0,0,0,0,0,0,0,0,0,0,0,0,0,0,0,0,0,0,0,0,0,0,0,0,0,0,0,0,0,0,0,0,0,0,0,0,0.5302,0.5303,0,0.5402,0.5404,0.5405,0.5435,0.5435,0.5434,0.5434,0.5536,0.5539,0.5542,0,0,0,0,0,0,0,0,0,0,0,0,0,0.5137,0.514,0.5302,0.5304,0.5305,0.5402,0.5404,0.5405,0.5435,0.5435,0.5434,0.5434,0.5535,0.5539,0.5543,0,0,0,0,0,0,0,0,0,0,0,0,0,0.522,0.5141,0.5302,0.5332,0.5335,0.5402,0.5404,0.5405,0.5436,0.5435,0.5434,0.5433,0.5534,0.5538,0.5543,0.5587,0,0,0.5558,0.556,0,0,0,0,0,0,0,0,0.5216,0.5226,0.5326,0.533,0.5334,0.5406,0.5383,0.5466,0.5436,0.5398,0.5434,0.5433,0.5493,0.5501,0.5522,0.5592,0.5596,0.5558,0.5561,0.5563,0.5564,0,0,0,0,0,0,0,0.521,0.5222,0.5342,0.5328,0.5332,0.534,0.5351,0.5399,0.5448,0.5401,0.5403,0.5415,0.5495,0.5517,0.5524,0.5598,0.5558,0.5562,0.5565,0.5567,0.5709,0.571,0,0,0,0,0,0,0.5199,0.5217,0.5339,0.5345,0.5272,0.5344,0.5356,0.5383,0.5448,0.5457,0.5415,0.5416,0.5509,0.5519,0.5528,0.5584,0.5563,0.5567,0.557,0.5709,0.571,0.5711,0,0,0,0,0,0,0.5195,0.521,0.5335,0.5282,0.5298,0.5347,0.5378,0.5386,0.5408,0.5459,0.5468,0.5428,0.5509,0.5521,0.5572,0.5588,0.557,0.5574,0.5707,0.5709,0.571,0.5695,0,0,0,0,0,0,0.519,0.5208,0.5225,0.5282,0.5301,0.5377,0.5379,0.5388,0.5416,0.5417,0.5473,0.5482,0.5509,0.5565,0.5577,0.5594,0.5578,0.5706,0.5708,0.571,0.5695,0.5696,0.5697,0,0,0,0,0,0.5184,0.5217,0.5226,0.5241,0.5324,0.5378,0.5389,0.542,0.5417,0.5435,0.5468,0.548,0.5584,0.557,0.5584,0.5602,0.5705,0.5708,0.571,0.5694,0.5696,0.5697,0,0,0,0,0,0,0.5161,0.5225,0.5236,0.5288,0.5327,0.5383,0.5406,0.5421,0.5462,0.5462,0.5498,0.5511,0.5559,0.5586,0.5569,0.5648,0.5645,0.565,0.5629,0.5631,0.5632,0.5624,0.5582,0,0,0,0,0,0.5162,0.5201,0.5255,0.5295,0.5315,0.5357,0.5382,0.5402,0.5445,0.5462,0.5498,0.5539,0.5581,0.5607,0.5649,0.5699,0.5712,0.5719,0.572,0.5721,0.5724,0.5753,0.5756,0.5718,0.5718,0.5717,0,0,0.5164,0.5204,0.5226,0.5292,0.5325,0.5364,0.5371,0.5412,0.5442,0.5468,0.5518,0.5547,0.5594,0.5645,0.5669,0.5669,0.5738,0.5723,0.5724,0.5727,0.5755,0.5759,0.5762,0.5719,0.5719,0.5718,0,0,0.5188,0.5222,0.5259,0.5292,0.5343,0.5371,0.538,0.5434,0.5453,0.5505,0.5525,0.5561,0.5632,0.5665,0.5691,0.5728,0.5741,0.574,0.5747,0.5774,0.5777,0.578,0.5793,0.5797,0.5744,0.5744,0.5744,0,0.5184,0.5244,0.5277,0.5317,0.5345,0.5371,0.5409,0.544,0.5501,0.5519,0.5518,0.5609,0.5643,0.5701,0.571,0.5731,0.5742,0.5734,0.5774,0.5777,0.5781,0.5793,0.5798,0.5744,0.5744,0.5744,0.5744,0,0.5237,0.5278,0.5302,0.5361,0.5392,0.5431,0.5469,0.5497,0.5515,0.5543,0.5594,0.5636,0.5686,0.5702,0.572,0.5763,0.5762,0.5767,0.5764,0.5783,0.5796,0.5801,0.5743,0.5743,0.5743,0.5743,0,0,0.5248,0.5324,0.5332,0.5359,0.5416,0.5449,0.5489,0.5538,0.5561,0.5602,0.5637,0.5697,0.5702,0.5732,0.5754,0.5778,0.5803,0.578,0.5782,0.5782,0.5854,0.5849,0.5854,0.5813,0.5814,0.5815,0.5849,0,0.5278,0.5351,0.5382,0.5441,0.5479,0.5505,0.554,0.5578,0.5606,0.5643,0.5673,0.5715,0.5719,0.5737,0.5762,0.5795,0.5818,0.5793,0.5845,0.5846,0.5831,0.586,0.5855,0.5886,0.5854,0.5855,0.5856,0,0.5324,0.5365,0.5428,0.548,0.5498,0.5529,0.5576,0.5611,0.5656,0.5674,0.5707,0.5728,0.5771,0.5766,0.5826,0.5808,0.5831,0.5851,0.5853,0.5858,0.5852,0.5866,0.5896,0.5901,0.5864,0.5863,0.5863,0,0.5325,0.5396,0.5443,0.5465,0.5528,0.5549,0.5576,0.562,0.5648,0.5689,0.5708,0.5754,0.5779,0.5814,0.5847,0.584,0.5903,0.5901,0.5919,0.5918,0.5931,0.5929,0.5965,0.5947,0.5947,0.5947,0.5946,0,0.5355,0.5392,0.5444,0.5473,0.5515,0.555,0.5591,0.562,0.5659,0.5694,0.5719,0.575,0.5792,0.5829,0.5855,0.59,0.5912,0.5928,0.5934,0.5925,0.5923,0.594,0.5939,0.5948,0.5948,0.5947,0.5947,0,0.5363,0.54,0.5452,0.5507,0.5522,0.5551,0.5598,0.5627,0.5655,0.5699,0.5711,0.5756,0.5801,0.5838,0.5897,0.5914,0.5961,0.5969,0.5946,0.5949,0.5965,0.5963,0.6012,0.602,0.5997,0.5997,0.5998,0,0.538,0.5409,0.5467,0.5492,0.5519,0.5559,0.5588,0.5624,0.5652,0.5705,0.5727,0.5774,0.5814,0.5885,0.5923,0.5968,0.5976,0.599,0.5983,0.5973,0.5976,0.5973,0.5976,0.5991,0.5991,0.5991,0.5991,0,0.5406,0.5422,0.5462,0.5509,0.5542,0.558,0.5619,0.5638,0.5681,0.5712,0.5758,0.5789,0.5849,0.5895,0.5944,0.5972,0.5989,0.5993,0.6,0.5991,0.5976,0.5984,0.5947,0.5992,0.5992,0.5992,0.5992,0.5991,0.5418,0.5445,0.5491,0.5534,0.5567,0.5603,0.5632,0.5665,0.5705,0.5756,0.5775,0.5823,0.5867,0.5935,0.5963,0.6001,0.6002,0.6012,0.6014,0.6016,0.6014,0.597,0.601,0.601,0.601,0.601,0.601,0,0.5445,0.5475,0.5515,0.5569,0.5603,0.5616,0.566,0.5687,0.5729,0.5769,0.5807,0.586,0.5905,0.5947,0.5994,0.6016,0.6025,0.6027,0.6026,0.6032,0.6011,0.6,0.6019,0.6019,0.6019,0.6019,0.6019,0.6019,0.5462,0.5509,0.5531,0.5594,0.5624,0.5671,0.5694,0.5728,0.5759,0.5818,0.5855,0.5882,0.5923,0.5973,0.6015,0.6026,0.6042,0.6042,0.6055,0.6035,0.6033,0.6032,0.6022,0.6046,0.6046,0.6073,0.6073,0.6074]},{"header":{"parameterUnit":"m.s-1","parameterCategory":1,"la1":30.2991,"la2":30.254,"lo1":-89.0895,"lo2":-89.0444,"dy":0.0017,"dx":0.0017,"nx":28,"ny":28,"refTime":"2024-03-03T03:00:00:Z","depth":0,"parameterNumber":3,"parameterNumberName":"V-component_of_WINDS"},"data":[0,0,0,0,0,0,0,0,0,0,0,0,0,0,0,0,0,0,0,0,0,0,0,0,0,0,0,0,0,0,0,0,0,0,0,0,0,0,0,0,0,0,0,0,0,0,0,0,0,0,0,0,0,0,0,0,0,0,-0.3199,-0.3199,0,-0.32,-0.32,-0.32,-0.3194,-0.3194,-0.3194,-0.3194,-0.3194,-0.3194,-0.3195,0,0,0,0,0,0,0,0,0,0,0,0,0,-0.3191,-0.3191,-0.3199,-0.3199,-0.3199,-0.32,-0.32,-0.32,-0.3194,-0.3194,-0.3194,-0.3194,-0.3194,-0.3194,-0.3195,0,0,0,0,0,0,0,0,0,0,0,0,0,-0.3194,-0.3191,-0.3199,-0.3196,-0.3196,-0.32,-0.32,-0.32,-0.3195,-0.3194,-0.3194,-0.3194,-0.3194,-0.3194,-0.3195,-0.3201,0,0,-0.3195,-0.3196,0,0,0,0,0,0,0,0,-0.3193,-0.3194,-0.3197,-0.3197,-0.3196,-0.3197,-0.3198,-0.3201,-0.3195,-0.3195,-0.3194,-0.3194,-0.3195,-0.3195,-0.3196,-0.3201,-0.3201,-0.3195,-0.3196,-0.3196,-0.3196,0,0,0,0,0,0,0,-0.3193,-0.3194,-0.32,-0.3197,-0.3197,-0.3195,-0.3195,-0.3198,-0.3197,-0.3195,-0.3195,-0.3195,-0.3195,-0.3196,-0.3196,-0.3201,-0.3195,-0.3196,-0.3196,-0.3196,-0.3212,-0.3213,0,0,0,0,0,0,-0.3194,-0.3194,-0.3199,-0.32,-0.3194,-0.3195,-0.3195,-0.3197,-0.3197,-0.3196,-0.3195,-0.3195,-0.3196,-0.3196,-0.3196,-0.3204,-0.3196,-0.3196,-0.3196,-0.3212,-0.3212,-0.3213,0,0,0,0,0,0,-0.3193,-0.3194,-0.3199,-0.3197,-0.3197,-0.3196,-0.3198,-0.3197,-0.3198,-0.3197,-0.3196,-0.3196,-0.3196,-0.3196,-0.32,-0.3204,-0.3196,-0.3196,-0.3212,-0.3212,-0.3213,-0.3221,0,0,0,0,0,0,-0.3193,-0.3194,-0.3197,-0.3197,-0.3197,-0.3204,-0.3198,-0.3197,-0.3199,-0.3198,-0.3198,-0.3197,-0.3195,-0.32,-0.32,-0.3205,-0.3196,-0.3211,-0.3212,-0.3212,-0.322,-0.3221,-0.3222,0,0,0,0,0,-0.3193,-0.3199,-0.3197,-0.3198,-0.3201,-0.3204,-0.3204,-0.3202,-0.3199,-0.3202,-0.3201,-0.3197,-0.3204,-0.32,-0.3201,-0.3205,-0.3211,-0.3212,-0.3212,-0.322,-0.3221,-0.3222,0,0,0,0,0,0,-0.3199,-0.3199,-0.3197,-0.3202,-0.3203,-0.3203,-0.3206,-0.3204,-0.3205,-0.3205,-0.3201,-0.3201,-0.3207,-0.3206,-0.3202,-0.3212,-0.3207,-0.3208,-0.3212,-0.3214,-0.3215,-0.3215,-0.3197,0,0,0,0,0,-0.3201,-0.3204,-0.3203,-0.3209,-0.3209,-0.3208,-0.3209,-0.3207,-0.3208,-0.3208,-0.3208,-0.3208,-0.321,-0.3212,-0.3214,-0.322,-0.322,-0.3223,-0.3224,-0.3225,-0.3226,-0.323,-0.3232,-0.3215,-0.3215,-0.3215,0,0,-0.3205,-0.3205,-0.3207,-0.321,-0.321,-0.3213,-0.3208,-0.3211,-0.3214,-0.3208,-0.3213,-0.3213,-0.3213,-0.3218,-0.3221,-0.3218,-0.3231,-0.3226,-0.3227,-0.3227,-0.3231,-0.3233,-0.3234,-0.3215,-0.3215,-0.3215,0,0,-0.3214,-0.3214,-0.3219,-0.322,-0.3221,-0.322,-0.3221,-0.3221,-0.3221,-0.3225,-0.3222,-0.3224,-0.3228,-0.3229,-0.3229,-0.3239,-0.3237,-0.324,-0.3247,-0.325,-0.3252,-0.3253,-0.3257,-0.3259,-0.3241,-0.3241,-0.3241,0,-0.3219,-0.3224,-0.3222,-0.3226,-0.3227,-0.3223,-0.3228,-0.3229,-0.323,-0.3231,-0.3228,-0.3233,-0.3233,-0.3239,-0.3242,-0.3242,-0.3244,-0.324,-0.3252,-0.3253,-0.3254,-0.3258,-0.326,-0.3241,-0.3241,-0.3241,-0.3241,0,-0.3231,-0.3234,-0.3238,-0.324,-0.3242,-0.3246,-0.3244,-0.3246,-0.3244,-0.3244,-0.3249,-0.3248,-0.325,-0.3251,-0.3249,-0.3257,-0.3256,-0.3252,-0.3247,-0.3256,-0.326,-0.3261,-0.3242,-0.3242,-0.3242,-0.3241,0,0,-0.3244,-0.3245,-0.3246,-0.3248,-0.3249,-0.3251,-0.3255,-0.3258,-0.326,-0.3261,-0.3265,-0.3268,-0.3265,-0.3266,-0.3264,-0.3267,-0.3276,-0.3263,-0.3263,-0.3267,-0.3286,-0.3289,-0.3291,-0.3274,-0.3274,-0.3274,-0.3286,0,-0.3254,-0.3262,-0.326,-0.3268,-0.3271,-0.3267,-0.3271,-0.3272,-0.3271,-0.3274,-0.3273,-0.3276,-0.3271,-0.3272,-0.3275,-0.3274,-0.328,-0.3273,-0.3278,-0.3278,-0.3279,-0.3293,-0.3296,-0.3307,-0.3287,-0.3288,-0.3288,0,-0.3266,-0.3269,-0.3277,-0.3278,-0.3279,-0.3283,-0.3285,-0.3288,-0.3289,-0.3288,-0.329,-0.3287,-0.3291,-0.3286,-0.3292,-0.3287,-0.3289,-0.3289,-0.3289,-0.329,-0.3284,-0.3295,-0.331,-0.3312,-0.329,-0.329,-0.329,0,-0.3276,-0.3281,-0.3287,-0.3288,-0.3289,-0.3292,-0.3292,-0.3293,-0.3295,-0.3297,-0.3298,-0.33,-0.3302,-0.3303,-0.3301,-0.3297,-0.3308,-0.3302,-0.3308,-0.3308,-0.3311,-0.3311,-0.3328,-0.331,-0.331,-0.331,-0.331,0,-0.3288,-0.3293,-0.3292,-0.3295,-0.3301,-0.3299,-0.3305,-0.3305,-0.3306,-0.331,-0.3306,-0.3309,-0.3306,-0.3309,-0.3307,-0.3313,-0.3313,-0.3313,-0.3313,-0.3314,-0.3314,-0.3316,-0.3315,-0.3311,-0.3311,-0.3311,-0.331,0,-0.33,-0.3299,-0.3306,-0.3306,-0.3307,-0.3311,-0.3312,-0.3315,-0.3314,-0.3319,-0.332,-0.3319,-0.3322,-0.332,-0.3324,-0.3323,-0.333,-0.3328,-0.333,-0.333,-0.3336,-0.3336,-0.3355,-0.3358,-0.3338,-0.3338,-0.3338,0,-0.3308,-0.3312,-0.3314,-0.3316,-0.3317,-0.3321,-0.3323,-0.3321,-0.3323,-0.3325,-0.3328,-0.3332,-0.3334,-0.334,-0.3339,-0.3342,-0.3341,-0.3347,-0.3341,-0.3342,-0.3342,-0.3342,-0.3343,-0.3349,-0.3349,-0.3349,-0.3349,0,-0.3322,-0.3322,-0.3326,-0.3329,-0.3332,-0.3334,-0.3336,-0.3338,-0.3336,-0.3339,-0.3343,-0.3345,-0.3349,-0.3352,-0.3355,-0.3355,-0.3352,-0.3351,-0.3353,-0.3355,-0.3356,-0.3356,-0.3335,-0.3351,-0.3351,-0.3351,-0.3351,-0.335,-0.3333,-0.3337,-0.334,-0.3344,-0.3345,-0.3347,-0.3351,-0.3351,-0.3354,-0.3358,-0.3356,-0.3361,-0.3362,-0.3365,-0.3366,-0.3369,-0.3367,-0.3369,-0.3369,-0.337,-0.3372,-0.3355,-0.3369,-0.3369,-0.3369,-0.3369,-0.3369,0,-0.3349,-0.335,-0.3354,-0.3357,-0.3361,-0.3358,-0.336,-0.3363,-0.3367,-0.3369,-0.3372,-0.3377,-0.338,-0.338,-0.3383,-0.3386,-0.3385,-0.3387,-0.3387,-0.3387,-0.3373,-0.3372,-0.3388,-0.3388,-0.3388,-0.3388,-0.3388,-0.3388,-0.3357,-0.3364,-0.3364,-0.3372,-0.3373,-0.3378,-0.3379,-0.3381,-0.3383,-0.3389,-0.3392,-0.3392,-0.3392,-0.3396,-0.3399,-0.3399,-0.34,-0.3403,-0.3403,-0.339,-0.3388,-0.3386,-0.3385,-0.3403,-0.3403,-0.3416,-0.3417,-0.3417]}]]